Simultaneous Nadir Overpasses (SNOs) Predictions

Prediction of SNOs between AQUA and NOAA-19 Satellite Orbit:

Table of predicted SNOs for the next 14.0 days since TLE Epoch: 9/14/2018
Index Date (AQUA) Time (AQUA) Lat,Lon (AQUA) SZA (AQUA ) Date (NOAA-19) Time (NOAA-19) Lat,Lon (NOAA-19) SZA (NOAA-19 ) Distance(km) Time Diff (sec)
1 09/16/2018 13:11:39 80.70, -55.07 79.92 09/16/2018 13:10:54 80.72, -55.06 79.95 2.24 45
2 09/16/2018 14:01:05 -80.71, 112.45 100.06 09/16/2018 14:01:56 -80.73, 112.44 100.06 1.92 51
3 09/18/2018 18:45:20 -80.71, 41.35 99.22 09/18/2018 18:44:30 -80.71, 41.21 99.19 2.73 50
4 09/18/2018 19:34:48 80.73,-151.25 80.83 09/18/2018 19:35:27 80.71,-151.26 80.81 2.12 39
5 09/21/2018 00:19:02 80.71, 137.94 81.62 09/21/2018 00:17:59 80.71, 138.01 81.64 1.29 63
6 09/21/2018 01:08:28 -80.72, -54.49 98.36 09/21/2018 01:09:02 -80.72, -54.45 98.37 0.67 34
7 09/23/2018 05:52:42 -80.69,-125.29 97.57 09/23/2018 05:51:35 -80.71,-125.37 97.52 1.87 67
8 09/23/2018 06:42:10 80.72, 42.04 82.50 09/23/2018 06:42:31 80.71, 42.14 82.48 1.90 21
9 09/25/2018 12:15:49 -80.70, 138.82 96.69 09/25/2018 12:16:06 -80.72, 138.92 96.70 2.38 17




NCC Satellite Simultaneous Nadir Overpasses (SNOs) Prediction Service
